.
WxDataArchive / Data Records for 2011-05-30
2011-05-29 May 2011 2011-05-31

Data Records for Monday, 30 May 2011

Time	Temp	Chill	HIndex	Humid	Dewpt	 Wind 	HiWind	WindDir	Rain 	Barom 
-----	----	-----	------	-----	-----	------	------	-------	-----	----- 
00:00	65.8	65.8	65.8	91	63.1	0	0	---	0.00	29.974 
00:05	65.6	65.6	65.6	91	62.9	0	0	---	0.00	29.974 
00:10	65.5	65.5	65.5	92	63.1	0	0	---	0.00	29.974 
00:15	65.5	65.5	65.5	92	63.1	0	0	---	0.00	29.974 
00:20	65.3	65.3	65.3	92	62.9	0	0	---	0.00	29.974 
00:25	65.3	65.3	65.3	92	62.9	0	0	---	0.00	29.974 
00:30	65.2	65.2	65.2	92	62.8	0	0	---	0.00	29.972 
00:35	65.2	65.2	65.2	92	62.8	0	0	---	0.00	29.972 
00:40	65.2	65.2	65.2	93	63.1	0	0	---	0.00	29.972 
00:45	65.2	65.2	65.2	93	63.1	0	0	---	0.00	29.973 
00:50	65.0	65.0	65.0	93	62.9	0	0	---	0.00	29.973 
00:55	65.0	65.0	65.0	93	62.9	0	0	---	0.00	29.973 
01:00	65.0	65.0	65.0	93	62.9	0	0	---	0.00	29.973 
01:05	64.8	64.8	64.8	93	62.7	0	0	---	0.00	29.973 
01:10	64.8	64.8	64.8	93	62.7	0	0	---	0.00	29.973 
01:15	64.7	64.7	64.7	93	62.6	0	0	---	0.00	29.976 
01:20	64.7	64.7	64.7	93	62.6	0	0	---	0.00	29.976 
01:25	64.5	64.5	64.5	93	62.4	0	0	---	0.00	29.976 
01:30	64.5	64.5	64.5	93	62.4	0	0	---	0.00	29.978 
01:35	64.5	64.5	64.5	93	62.4	0	0	---	0.00	29.978 
01:40	64.3	64.3	64.3	94	62.5	0	0	---	0.00	29.978 
01:45	64.3	64.3	64.3	94	62.5	0	0	---	0.00	29.979 
01:50	64.3	64.3	64.3	94	62.5	0	0	---	0.00	29.979 
01:55	64.3	64.3	64.3	94	62.5	0	0	---	0.00	29.979 
02:00	64.3	64.3	64.3	94	62.5	0	0	---	0.00	29.980 
02:05	64.3	64.3	64.3	94	62.5	0	0	---	0.00	29.980 
02:10	64.3	64.3	64.3	94	62.5	0	0	---	0.00	29.980 
02:15	64.2	64.2	64.2	94	62.4	0	0	---	0.00	29.980 
02:20	64.2	64.2	64.2	94	62.4	0	0	---	0.00	29.980 
02:25	64.0	64.0	64.0	94	62.2	0	0	---	0.00	29.980 
02:30	64.0	64.0	64.0	94	62.2	0	0	---	0.00	29.980 
02:35	63.9	63.9	63.9	94	62.1	0	0	---	0.00	29.980 
02:40	63.9	63.9	63.9	94	62.1	0	0	---	0.00	29.980 
02:45	63.7	63.7	63.7	95	62.2	0	0	---	0.00	29.980 
02:50	63.7	63.7	63.7	95	62.2	0	0	---	0.00	29.980 
02:55	63.5	63.5	63.5	95	62.0	0	0	---	0.00	29.980 
03:00	63.5	63.5	63.5	95	62.0	0	0	---	0.00	29.982 
03:05	63.5	63.5	63.5	95	62.0	0	0	---	0.00	29.982 
03:10	63.4	63.4	63.4	95	61.9	0	0	---	0.00	29.982 
03:15	63.4	63.4	63.4	95	61.9	0	0	---	0.00	29.985 
03:20	63.2	63.2	63.2	95	61.7	0	0	---	0.00	29.985 
03:25	63.1	63.1	63.1	95	61.6	0	0	---	0.00	29.985 
03:30	63.1	63.1	63.1	95	61.6	0	0	---	0.00	29.986 
03:35	63.1	63.1	63.1	95	61.6	0	0	---	0.00	29.986 
03:40	62.9	62.9	62.9	95	61.4	0	0	---	0.00	29.986 
03:45	62.9	62.9	62.9	95	61.4	0	0	---	0.00	29.996 
03:50	62.7	62.7	62.7	95	61.2	0	0	---	0.00	29.996 
03:55	62.7	62.7	62.7	95	61.2	0	0	---	0.00	29.996 
04:00	62.6	62.6	62.6	95	61.1	0	0	---	0.00	29.997 
04:05	62.6	62.6	62.6	95	61.1	0	0	---	0.00	29.997 
04:10	62.6	62.6	62.6	95	61.1	0	0	---	0.00	29.997 
04:15	62.4	62.4	62.4	95	60.9	0	0	---	0.00	30.005 
04:20	62.4	62.4	62.4	95	60.9	0	0	---	0.00	30.005 
04:25	62.4	62.4	62.4	95	60.9	0	0	---	0.00	30.005 
04:30	62.3	62.3	62.3	95	60.8	0	0	---	0.00	30.013 
04:35	62.3	62.3	62.3	95	60.8	0	0	---	0.00	30.013 
04:40	62.3	62.3	62.3	96	61.1	0	0	---	0.00	30.013 
04:45	62.3	62.3	62.3	96	61.1	0	0	---	0.00	30.023 
04:50	62.1	62.1	62.1	96	60.9	0	0	---	0.00	30.023 
04:55	62.1	62.1	62.1	96	60.9	0	0	---	0.00	30.023 
05:00	62.1	62.1	62.1	96	60.9	0	0	---	0.00	30.029 
05:05	62.0	62.0	62.0	96	60.8	0	0	---	0.00	30.029 
05:10	62.0	62.0	62.0	96	60.8	0	0	---	0.00	30.029 
05:15	62.0	62.0	62.0	96	60.8	0	0	---	0.00	30.035 
05:20	61.8	61.8	61.8	96	60.6	0	0	---	0.00	30.035 
05:25	61.8	61.8	61.8	96	60.6	0	0	---	0.00	30.035 
05:30	61.6	61.6	61.6	96	60.4	0	0	---	0.00	30.036 
05:35	61.6	61.6	61.6	96	60.4	0	0	---	0.00	30.036 
05:40	61.5	61.5	61.5	96	60.3	0	0	---	0.00	30.036 
05:45	61.5	61.5	61.5	96	60.3	0	0	---	0.00	30.038 
05:50	61.5	61.5	61.5	96	60.3	0	0	---	0.00	30.038 
05:55	61.5	61.5	61.5	96	60.3	0	0	---	0.00	30.038 
06:00	61.5	61.5	61.5	96	60.3	0	0	---	0.00	30.042 
06:05	61.3	61.3	61.3	96	60.1	0	0	---	0.00	30.042 
06:10	61.3	61.3	61.3	96	60.1	0	0	---	0.00	30.042 
06:15	61.2	61.2	61.2	96	60.0	0	0	---	0.00	30.046 
06:20	61.2	61.2	61.2	96	60.0	0	0	---	0.00	30.046 
06:25	61.0	61.0	61.0	96	59.8	0	0	---	0.00	30.046 
06:30	61.0	61.0	61.0	96	59.8	0	0	---	0.00	30.050 
06:35	60.9	60.9	60.9	96	59.7	0	0	---	0.00	30.050 
06:40	60.9	60.9	60.9	96	59.7	0	0	---	0.00	30.050 
06:45	61.0	61.0	61.0	96	59.8	0	0	---	0.00	30.055 
06:50	61.0	61.0	61.0	96	59.8	0	0	---	0.00	30.055 
06:55	61.2	61.2	61.2	96	60.0	0	0	---	0.00	30.055 
07:00	61.5	61.5	61.5	96	60.3	0	0	---	0.00	30.058 
07:05	61.8	61.8	61.8	96	60.6	0	0	---	0.00	30.058 
07:10	62.3	62.3	62.3	96	61.1	0	0	---	0.00	30.058 
07:15	62.7	62.7	62.7	97	61.8	0	0	---	0.00	30.067 
07:20	63.4	63.4	63.4	97	62.5	0	0	---	0.00	30.067 
07:25	64.0	64.0	64.0	97	63.1	0	0	---	0.00	30.067 
07:30	64.8	64.8	64.8	97	63.9	0	0	---	0.00	30.072 
07:35	65.6	65.6	65.6	97	64.7	0	1	338	0.00	30.072 
07:40	66.0	66.0	66.0	97	65.1	0	0	---	0.00	30.072 
07:45	66.4	66.4	66.4	97	65.5	0	1	338	0.00	30.073 
07:50	66.9	66.9	66.9	97	66.0	0	1	338	0.00	30.073 
07:55	67.4	67.4	67.4	97	66.5	0	1	338	0.00	30.073 
08:00	68.3	68.3	68.3	96	67.1	0	1	338	0.00	30.078 
08:05	69.1	69.1	69.1	96	67.9	0	1	338	0.00	30.078 
08:10	69.9	69.9	69.9	94	68.1	0	1	338	0.00	30.078 
08:15	70.8	70.8	70.8	93	68.7	0	1	338	0.00	30.076 
08:20	71.5	71.5	71.5	90	68.4	0	2	135	0.00	30.076 
08:25	72.3	72.3	72.3	89	68.9	0	0	---	0.00	30.076 
08:30	73.0	73.0	73.0	87	68.9	0	2	135	0.00	30.083 
08:35	73.9	73.9	73.9	84	68.7	0	2	135	0.00	30.083 
08:40	74.6	74.6	74.6	82	68.7	0	1	135	0.00	30.083 
08:45	75.3	75.3	76.1	79	68.3	0	2	135	0.00	30.079 
08:50	76.0	76.0	77.2	78	68.6	0	2	135	0.00	30.079 
08:55	76.8	76.8	78.4	77	69.0	0	2	90	0.00	30.079 
09:00	77.4	77.4	79.3	77	69.6	0	2	90	0.00	30.084 
09:05	77.9	77.9	80.0	76	69.7	0	1	90	0.00	30.084 
09:10	78.5	78.5	80.9	74	69.5	0	1	90	0.00	30.084 
09:15	78.8	78.8	81.3	73	69.4	0	2	90	0.00	30.087 
09:20	79.0	79.0	81.6	73	69.6	0	2	45	0.00	30.087 
09:25	79.4	79.4	82.2	72	69.6	0	2	45	0.00	30.087 
09:30	79.8	79.8	82.7	71	69.5	0	2	45	0.00	30.089 
09:35	79.6	79.6	82.3	70	68.9	1	4	270	0.00	30.089 
09:40	79.4	79.4	82.3	73	70.0	1	4	270	0.00	30.089 
09:45	79.6	79.6	82.5	72	69.8	1	2	270	0.00	30.085 
09:50	79.8	79.8	82.6	70	69.1	1	3	270	0.00	30.085 
09:55	79.9	79.9	82.7	69	68.8	1	3	270	0.00	30.085 
10:00	79.9	79.9	82.7	69	68.8	1	4	270	0.00	30.088 
10:05	80.1	80.1	83.0	69	69.0	2	4	270	0.00	30.088 
10:10	80.3	80.3	83.2	68	68.8	1	3	248	0.00	30.088 
10:15	80.7	80.7	84.0	69	69.6	1	3	248	0.00	30.089 
10:20	80.9	80.9	84.0	67	68.9	1	4	225	0.00	30.089 
10:25	81.2	81.2	84.5	67	69.2	1	2	248	0.00	30.089 
10:30	81.4	81.4	84.6	66	68.9	1	4	248	0.00	30.088 
10:35	81.6	81.6	84.9	66	69.1	1	3	248	0.00	30.088 
10:40	81.8	81.8	85.1	65	68.9	1	3	248	0.00	30.088 
10:45	81.8	81.8	84.9	64	68.4	2	4	248	0.00	30.091 
10:50	82.0	82.0	85.2	64	68.6	1	3	270	0.00	30.091 
10:55	82.4	82.4	86.1	65	69.4	1	3	270	0.00	30.091 
11:00	82.8	82.8	86.3	63	68.9	1	5	248	0.00	30.089 
11:05	82.8	82.8	86.1	62	68.4	2	5	292	0.00	30.089 
11:10	82.8	82.8	86.5	64	69.3	1	3	248	0.00	30.089 
11:15	83.2	83.2	86.7	62	68.8	2	4	248	0.00	30.090 
11:20	83.4	83.4	87.3	63	69.5	1	4	270	0.00	30.090 
11:25	83.4	83.4	87.0	62	69.0	2	4	270	0.00	30.090 
11:30	83.6	83.6	87.4	62	69.2	2	4	270	0.00	30.087 
11:35	83.6	83.6	87.4	62	69.2	2	4	270	0.00	30.087 
11:40	83.8	83.8	87.7	62	69.4	1	5	270	0.00	30.087 
11:45	84.1	84.1	88.2	62	69.6	1	3	248	0.00	30.087 
11:50	84.5	84.5	88.7	61	69.5	1	4	270	0.00	30.087 
11:55	84.5	84.5	88.4	60	69.1	2	5	248	0.00	30.087 
12:00	84.9	84.9	88.8	59	68.9	2	6	248	0.00	30.089 
12:05	85.1	85.1	89.1	59	69.1	1	5	248	0.00	30.089 
12:10	85.1	85.1	88.8	58	68.6	2	5	270	0.00	30.089 
12:15	85.3	85.3	88.8	57	68.3	1	4	270	0.00	30.086 
12:20	85.5	85.5	89.8	59	69.5	1	3	270	0.00	30.086 
12:25	85.7	85.7	89.5	57	68.7	2	4	270	0.00	30.086 
12:30	85.7	85.7	89.2	56	68.2	2	5	248	0.00	30.088 
12:35	85.9	85.9	89.6	56	68.3	2	5	248	0.00	30.088 
12:40	86.3	86.3	90.2	56	68.7	2	4	248	0.00	30.088 
12:45	86.7	86.7	91.3	57	69.6	1	3	270	0.00	30.086 
12:50	87.0	87.0	90.8	54	68.3	2	7	248	0.00	30.086 
12:55	86.5	86.5	90.3	55	68.4	1	3	292	0.00	30.086 
13:00	86.7	86.7	90.6	55	68.6	2	4	248	0.00	30.084 
13:05	87.0	87.0	91.9	57	69.9	1	4	112	0.00	30.084 
13:10	87.4	87.4	93.0	58	70.8	0	2	248	0.00	30.084 
13:15	87.8	87.8	93.4	57	70.6	1	3	248	0.00	30.084 
13:20	87.8	87.8	92.2	54	69.0	1	4	315	0.00	30.084 
13:25	87.4	87.4	91.9	55	69.2	2	5	292	0.00	30.084 
13:30	87.6	87.6	92.2	55	69.4	1	5	45	0.00	30.085 
13:35	87.6	87.6	91.1	52	67.8	1	4	225	0.00	30.085 
13:40	87.8	87.8	92.2	54	69.0	1	4	292	0.00	30.085 
13:45	88.0	88.0	93.4	56	70.3	1	2	292	0.00	30.085 
13:50	88.0	88.0	93.4	56	70.3	0	2	292	0.00	30.085 
13:55	88.2	88.2	92.9	54	69.4	1	4	292	0.00	30.085 
14:00	88.2	88.2	92.1	52	68.3	1	5	292	0.00	30.084 
14:05	88.4	88.4	93.7	55	70.1	1	4	270	0.00	30.084 
14:10	88.4	88.4	93.3	54	69.6	1	3	270	0.00	30.084 
14:15	88.6	88.6	93.3	53	69.2	2	4	292	0.00	30.084 
14:20	89.0	89.0	94.9	55	70.7	0	2	135	0.00	30.084 
14:25	88.8	88.8	93.7	53	69.4	1	4	292	0.00	30.084 
14:30	88.6	88.6	93.3	53	69.2	1	3	292	0.00	30.083 
14:35	88.6	88.6	93.7	54	69.8	1	5	292	0.00	30.083 
14:40	89.0	89.0	94.0	53	69.6	2	6	292	0.00	30.083 
14:45	89.0	89.0	93.2	51	68.5	2	5	270	0.00	30.085 
14:50	89.3	89.3	94.2	52	69.3	1	2	292	0.00	30.085 
14:55	89.5	89.5	93.7	50	68.4	1	3	292	0.00	30.085 
15:00	89.3	89.3	93.7	51	68.8	2	4	248	0.00	30.085 
15:05	89.3	89.3	94.6	53	69.9	1	4	248	0.00	30.085 
15:10	89.3	89.3	94.6	53	69.9	1	3	248	0.00	30.085 
15:15	89.5	89.5	95.9	55	71.2	1	3	292	0.00	30.081 
15:20	89.7	89.7	94.9	52	69.7	1	5	90	0.00	30.081 
15:25	89.9	89.9	94.4	50	68.7	1	4	270	0.00	30.081 
15:30	89.9	89.9	94.4	50	68.7	2	4	270	0.00	30.084 
15:35	90.1	90.1	94.8	50	68.9	2	6	248	0.00	30.084 
15:40	90.3	90.3	94.7	49	68.5	1	5	248	0.00	30.084 
15:45	90.3	90.3	94.7	49	68.5	1	4	248	0.00	30.083 
15:50	90.3	90.3	95.2	50	69.1	1	3	270	0.00	30.083 
15:55	89.9	89.9	94.4	50	68.7	1	3	270	0.00	30.083 
16:00	89.7	89.7	94.0	50	68.5	2	4	292	0.00	30.083 
16:05	89.5	89.5	93.7	50	68.4	2	6	248	0.00	30.083 
16:10	89.7	89.7	95.9	54	70.8	1	4	112	0.00	30.083 
16:15	89.5	89.5	95.0	53	70.1	1	4	112	0.00	30.079 
16:20	89.0	89.0	93.2	51	68.5	1	4	315	0.00	30.079 
16:25	89.0	89.0	93.2	51	68.5	1	9	248	0.00	30.079 
16:30	89.3	89.3	95.1	54	70.4	1	3	292	0.00	30.076 
16:35	89.5	89.5	94.1	51	68.9	1	4	45	0.00	30.076 
16:40	89.9	89.9	94.9	51	69.3	1	5	270	0.00	30.076 
16:45	89.9	89.9	94.4	50	68.7	1	4	270	0.00	30.069 
16:50	90.1	90.1	94.3	49	68.3	1	4	248	0.00	30.069 
16:55	90.3	90.3	95.2	50	69.1	1	4	248	0.00	30.069 
17:00	90.5	90.5	94.6	48	68.1	1	4	292	0.00	30.070 
17:05	90.5	90.5	95.1	49	68.7	1	4	270	0.00	30.070 
17:10	90.3	90.3	93.8	47	67.3	2	4	270	0.00	30.070 
17:15	90.3	90.3	93.8	47	67.3	2	4	270	0.00	30.070 
17:20	90.3	90.3	94.3	48	67.9	1	3	270	0.00	30.070 
17:25	90.3	90.3	94.3	48	67.9	1	4	292	0.00	30.070 
17:30	90.3	90.3	94.3	48	67.9	1	5	292	0.00	30.063 
17:35	90.1	90.1	93.5	47	67.1	1	4	248	0.00	30.063 
17:40	90.1	90.1	94.3	49	68.3	1	5	270	0.00	30.063 
17:45	90.1	90.1	93.9	48	67.7	2	5	248	0.00	30.067 
17:50	90.1	90.1	93.9	48	67.7	2	6	270	0.00	30.067 
17:55	89.9	89.9	94.0	49	68.1	1	4	270	0.00	30.067 
18:00	89.5	89.5	93.7	50	68.4	2	6	248	0.00	30.069 
18:05	89.0	89.0	93.6	52	69.0	1	5	248	0.00	30.069 
18:10	88.8	88.8	92.4	50	67.7	2	5	248	0.00	30.069 
18:15	88.8	88.8	92.8	51	68.3	1	5	270	0.00	30.071 
18:20	88.6	88.6	92.9	52	68.7	0	2	248	0.00	30.071 
18:25	88.8	88.8	92.4	50	67.7	2	6	270	0.00	30.071 
18:30	88.6	88.6	92.1	50	67.5	1	4	270	0.00	30.069 
18:35	88.6	88.6	92.5	51	68.1	1	5	270	0.00	30.069 
18:40	88.4	88.4	91.7	50	67.4	1	4	270	0.00	30.069 
18:45	88.2	88.2	92.1	52	68.3	1	5	292	0.00	30.065 
18:50	88.2	88.2	91.8	51	67.7	1	3	292	0.00	30.065 
18:55	88.2	88.2	92.1	52	68.3	1	3	292	0.00	30.065 
19:00	88.0	88.0	91.0	50	67.0	1	4	292	0.00	30.063 
19:05	88.0	88.0	91.0	50	67.0	1	3	270	0.00	30.063 
19:10	88.0	88.0	91.4	51	67.6	0	2	292	0.00	30.063 
19:15	88.0	88.0	91.4	51	67.6	1	3	292	0.00	30.057 
19:20	88.0	88.0	92.2	53	68.7	0	2	202	0.00	30.057 
19:25	87.6	87.6	91.5	53	68.3	0	2	202	0.00	30.057 
19:30	87.6	87.6	91.1	52	67.8	1	3	202	0.00	30.060 
19:35	87.4	87.4	90.7	52	67.6	1	2	270	0.00	30.060 
19:40	87.4	87.4	90.7	52	67.6	1	3	292	0.00	30.060 
19:45	87.2	87.2	91.1	54	68.5	0	2	292	0.00	30.063 
19:50	87.0	87.0	90.8	54	68.3	1	5	292	0.00	30.063 
19:55	86.7	86.7	90.3	54	68.0	0	2	292	0.00	30.063 
20:00	86.3	86.3	90.2	56	68.7	0	2	292	0.00	30.059 
20:05	86.1	86.1	89.9	56	68.5	0	3	315	0.00	30.059 
20:10	85.9	85.9	89.9	57	68.9	0	3	270	0.00	30.059 
20:15	85.7	85.7	89.5	57	68.7	0	1	270	0.00	30.055 
20:20	85.5	85.5	89.5	58	69.0	0	1	270	0.00	30.055 
20:25	85.1	85.1	88.8	58	68.6	0	1	270	0.00	30.055 
20:30	84.9	84.9	88.5	58	68.4	0	1	270	0.00	30.058 
20:35	84.7	84.7	88.4	59	68.8	0	1	270	0.00	30.058 
20:40	84.3	84.3	88.0	60	68.9	0	1	270	0.00	30.058 
20:45	84.1	84.1	87.7	60	68.7	0	2	270	0.00	30.061 
20:50	84.0	84.0	87.5	60	68.6	0	1	270	0.00	30.061 
20:55	83.6	83.6	87.1	61	68.7	0	1	270	0.00	30.061 
21:00	83.4	83.4	86.8	61	68.5	0	0	---	0.00	30.062 
21:05	83.0	83.0	86.4	62	68.6	0	1	270	0.00	30.062 
21:10	82.6	82.6	85.7	62	68.2	0	1	270	0.00	30.062 
21:15	82.4	82.4	85.4	62	68.0	0	0	---	0.00	30.061 
21:20	82.2	82.2	85.1	62	67.9	0	0	---	0.00	30.061 
21:25	81.8	81.8	84.7	63	67.9	0	0	---	0.00	30.061 
21:30	81.6	81.6	84.4	63	67.8	0	1	112	0.00	30.064 
21:35	81.4	81.4	84.1	63	67.6	0	1	112	0.00	30.064 
21:40	81.2	81.2	83.8	63	67.4	0	1	112	0.00	30.064 
21:45	81.2	81.2	83.8	63	67.4	0	1	112	0.00	30.068 
21:50	81.1	81.1	83.6	63	67.3	0	1	112	0.00	30.068 
21:55	80.9	80.9	83.4	63	67.1	0	1	112	0.00	30.068 
22:00	80.5	80.5	82.9	64	67.2	0	0	---	0.00	30.077 
22:05	80.3	80.3	82.7	64	67.0	0	0	---	0.00	30.077 
22:10	80.1	80.1	82.5	65	67.2	0	0	---	0.00	30.077 
22:15	79.8	79.8	82.1	65	67.0	0	0	---	0.00	30.078 
22:20	79.6	79.6	81.8	65	66.8	0	0	---	0.00	30.078 
22:25	79.2	79.2	81.4	66	66.8	0	0	---	0.00	30.078 
22:30	79.0	79.0	81.1	66	66.6	0	0	---	0.00	30.081 
22:35	78.8	78.8	80.9	67	66.9	0	1	112	0.00	30.081 
22:40	78.6	78.6	80.7	67	66.7	0	0	---	0.00	30.081 
22:45	78.3	78.3	80.3	68	66.8	0	0	---	0.00	30.086 
22:50	78.1	78.1	80.1	68	66.7	0	0	---	0.00	30.086 
22:55	77.7	77.7	79.6	69	66.7	0	0	---	0.00	30.086 
23:00	77.6	77.6	79.5	69	66.6	0	0	---	0.00	30.088 
23:05	77.2	77.2	79.0	69	66.2	0	0	---	0.00	30.088 
23:10	77.0	77.0	78.8	69	66.0	0	0	---	0.00	30.088 
23:15	76.8	76.8	78.5	70	66.3	0	0	---	0.00	30.086 
23:20	76.7	76.7	78.4	70	66.2	0	0	---	0.00	30.086 
23:25	76.3	76.3	77.9	71	66.2	0	0	---	0.00	30.086 
23:30	76.1	76.1	77.7	71	66.0	0	0	---	0.00	30.092 
23:35	75.8	75.8	77.3	72	66.1	0	0	---	0.00	30.092 
23:40	75.6	75.6	77.1	72	65.9	0	0	---	0.00	30.092 
23:45	75.3	75.3	76.7	73	66.0	0	0	---	0.00	30.094 
23:50	75.1	75.1	76.5	73	65.8	0	0	---	0.00	30.094 
23:55	74.9	74.9	74.9	74	66.0	0	0	---	0.00	30.094 

CoCoRaHS
IN-AL-39
A2 Web Hosting
Creative Commons License
GoDaddy
search engine by freefind advanced

loaded 2018-11-17 11:51:58 • last modified 2010-11-18 10:43:29
Privacy PolicyDisclaimer
• wx.awcolley.com is powered by PmWiki v.2002016 •
• all content (unless otherwise noted) © 2018 A W Colley